Regional Weather Roundup
Issued by NWS Jackson, KY

Home | Current Version | Previous Version | Text Only | Print | Product List | Glossary On
Versions: 1 2 3 4 5 6 7 8 9 10 11 12 13 14 15 16 17 18 19 20 21 22 23 24 25 26 27 28 29 30 31 32 33 34 35 36 37 38 39 40 41 42 43 44 45 46 47 48 49 50
681
ASUS43 KJKL 280010
RWRJKL

EAST KENTUCKY HOURLY WEATHER ROUNDUP
NATIONAL WEATHER SERVICE JACKSON KY
800 PM EDT TUE SEP 27 2016

NOTE: "FAIR" INDICATES FEW OR NO CLOUDS BELOW 12,000 FEET WITH
NO SIGNIFICANT WEATHER AND/OR OBSTRUCTIONS TO VISIBILITY.

* THESE REPORTS ARE NOT UNDER NWS QUALITY CONTROL AND MAY NOT
  REPORT WEATHER SUCH AS PRECIPITATION AND FOG.

KYZ079-080-083-085-087-088-110-112-115-119-120-280100
...EASTERN KENTUCKY...

CITY           SKY/WX    TMP DP  RH WIND       PRES   REMARKS
JACKSON        CLEAR     66  42  41 W3        29.93R
6HR MIN TEMP:  66; 6HR MAX TEMP:  76;

LONDON         CLEAR     64  42  44 CALM      29.93R
6HR MIN TEMP:  64; 6HR MAX TEMP:  76;

SOMERSET*      CLEAR     64  43  45 CALM      29.94R
MONTICELLO*    CLEAR     58  46  64 VRB3      29.95R
6HR MIN TEMP:  58; 6HR MAX TEMP:  75;

WILLIAMSBURG*  CLEAR     61  50  67 NW3       29.93S
MIDDLESBORO*   CLEAR     62  49  62 W3        29.94R
6HR MIN TEMP:  62; 6HR MAX TEMP:  78;

HARLAN APT*    CLEAR     61  45  55 CALM      29.94S
PIKE CO APT*     N/A     66  39  36 W6        29.92R
BIG SANDY APT* CLEAR     67  41  38 NW3       29.92R
6HR MIN TEMP:  67; 6HR MAX TEMP:  76;

MOREHEAD APT*  CLEAR     63  41  45 S6        29.92S
ASHLAND*       CLEAR     66  43  42 CALM      29.88R
$$

KYZ035-036-041-042-044-050-067-078-099-280100
...CENTRAL KENTUCKY...

CITY           SKY/WX    TMP DP  RH WIND       PRES   REMARKS
MT STERLING*   CLEAR     61  45  55 SW3       29.93R
FLEMING/MASON* CLEAR     64  41  43 SW6       29.91R
DANVILLE*      CLEAR     61  46  59 CALM      29.94R
LEXINGTON      CLEAR     66  41  40 SW6       29.91R
6HR MIN TEMP:  66; 6HR MAX TEMP:  76;

FRANKFORT      CLEAR     65  46  50 S3        29.89R
6HR MIN TEMP:  64; 6HR MAX TEMP:  76;

LOUISVILLE     PTCLDY    71  45  39 SW9       29.88S
6HR MIN TEMP:  70; 6HR MAX TEMP:  78;

LEBANON*         N/A     66  43  42 S3        29.93R
GLASGOW*       CLEAR     59  52  78 CALM      29.93R
BOWLING GREEN  CLEAR     68  44  42 CALM      29.92S
6HR MIN TEMP:  68; 6HR MAX TEMP:  77;

$$

KYZ091>093-OHZ055-061-077-WVZ005-015-034-035-042-280100
...SOUTHERN OHIO/WEST VIRGINIA...

CITY           SKY/WX    TMP DP  RH WIND       PRES   REMARKS
COVINGTON      MOCLDY    66  47  50 SW5       29.86S
COLUMBUS       PTCLDY    68  44  42 S7        29.84R
DAYTON         PTCLDY    67  45  45 SW10      29.85R
WILMINGTON     CLEAR     61  46  57 S7        29.86R
HUNTINGTON     CLEAR     68  41  37 SW3       29.90R
CHARLESTON     CLEAR     66  41  40 CALM      29.90R
PINEVILLE*     CLEAR     55  48  78 MISG      29.98S
BECKLEY        CLEAR     56  40  55 S5        29.96S
BLUEFIELD      CLEAR     58  41  53 SE3       29.97S
LOGAN CO APT*    N/A     66  45  45 CALM      29.91S
$$

VAZ002-007-008-TNZ017-027-036-066-071-280100
...SOUTHWEST VIRGINIA/EAST TENNESSEE...

CITY           SKY/WX    TMP DP  RH WIND       PRES   REMARKS
WISE*          CLEAR     63  34  34 CALM      29.98S
JONESVILLE*      N/A     64  46  52 CALM      29.95S
ABINGDON*      CLEAR     67  61  81 CALM      29.95S
BRISTOL        PTCLDY    69  60  73 CALM      29.92S
MORRISTOWN*    CLEAR     72  52  49 NW3       29.91S
SEVIERVILLE*   CLEAR     72  61  68 CALM      29.90S
KNOXVILLE      PTCLDY    74  60  61 SW3       29.89S
OAK RIDGE      CLEAR     71  47  42 CALM      29.91S
CROSSVILLE     CLEAR     64  44  48 NW3       29.97R
NASHVILLE      CLEAR     69  40  34 W6        29.94R
$$

...KEY TO REMARKS...
VSB - VISIBILITY IN MILES
WCI - WIND CHILL INDEX
HX  - HEAT INDEX

$$




USA.gov is the U.S. government's official web portal to all federal, state and local government web resources and services.